Location: Asheville, NC
(35.6000°N, 82.5500°W)
Time: 18:25:47
(UTC-04:00)

Vanguard 2 - Pass Details

Date: 17 February 2018
Orbit: 552 x 2940 km, 32.9° (Epoch: 20 May)

Event Time Altitude Azimuth Distance (km) Brightness Sun altitude
Rises 14:43:55 0° 190° (S) 6,435 13.1 34.8°
Reaches altitude 10° 14:53:35 10° 161° (SSE) 4,824 12.1 33.6°
Maximum altitude 14:56:26 11° 148° (SSE) 4,524 11.8 33.2°
Drops below altitude 10° 14:59:04 10° 135° (SE) 4,373 11.5 32.9°
Sets 15:05:54 0° 103° (ESE) 4,699 11.3 32.0°
